Retour au catalogue

SYNCOM 2

A 26

ActifCommunicationsGEO
NORAD 634·PAYLOAD·🇺🇸 United States

Lancé Jul 26, 1963 depuis Cape Canaveral Space Force Station

Loading…

TLE

FraisSource: Space-Track

Époque: Sep 8, 2026, 22:57 UTC

1   634U 63031A   26251.95667748 -.00000009  00000-0  00000+0 0  9993
2   634  29.8045 299.2521 0007339 211.6951 246.6920  1.00275595231201

Suivez SYNCOM 2 en temps réel avec AllMySat

Download on the App Store